GW3421 Weather Reports


time (UTC)temp
F
wind
direction
speed
knots
gust
knots
rain 1hr
in
rain 24hr
in
rain mn
in
humidity
%
barometer
mb
20260504035045 45 183 1.7 1.7 0.00 0.00 0.00 85 1017.5
20260504034544 46 154 0.9 1.7 0.00 0.00 0.00 81 1017.4
20260504034035 47 166 2.6 4.3 0.00 0.00 0.00 76 1017.5
20260504033533 46 147 0.9 0.9 0.00 0.00 0.00 75 1017.4
20260504033030 46 172 0.9 0.9 0.00 0.00 0.00 79 1017.5
20260504032527 44 185 0.0 0.9 0.00 0.00 0.00 82 1017.6
20260504032024 45 161 0.0 0.9 0.00 0.00 0.00 86 1017.5
20260504031521 46 168 0.9 0.9 0.00 0.00 0.00 79 1017.8
20260504031017 47 187 2.6 4.3 0.00 0.00 0.00 76 1017.6
20260504030515 46 160 0.9 0.9 0.00 0.00 0.00 79 1017.5
20260504030010 45 188 2.6 4.3 0.00 0.00 0.00 80 1017.6
20260504025508 45 153 0.9 1.7 0.00 0.00 0.00 84 1017.6
20260504025005 46 178 2.6 2.6 0.00 0.00 0.00 84 1017.6
20260504024502 46 164 1.7 1.7 0.00 0.00 0.00 82 1017.8
20260504023959 46 161 0.9 1.7 0.00 0.00 0.00 82 1017.8
20260504023455 47 165 1.7 1.7 0.00 0.00 0.00 81 1017.6
20260504022950 47 161 0.0 0.9 0.00 0.00 0.00 80 1017.8
20260504022447 47 156 1.7 1.7 0.00 0.00 0.00 80 1017.5
20260504021944 47 134 0.9 0.9 0.00 0.00 0.00 78 1017.5
20260504021441 48 143 0.9 1.7 0.00 0.00 0.00 78 1017.6
20260504020938 48 155 0.9 0.9 0.00 0.00 0.00 76 1017.3
20260504020434 48 159 0.9 0.9 0.00 0.00 0.00 75 1017.3
20260504015931 48 157 0.9 0.9 0.00 0.00 0.00 73 1017.4
20260504015427 49 160 0.9 1.7 0.00 0.00 0.00 74 1017.4
20260504014923 50 166 1.7 1.7 0.00 0.00 0.00 73 1017.0
20260504014420 50 161 0.0 0.9 0.00 0.00 0.00 68 1017.1
20260504013916 51 162 0.0 0.9 0.00 0.00 0.00 67 1017.2
20260504013415 52 164 0.0 0.9 0.00 0.00 0.00 63 1017.2
20260504012911 53 150 0.0 0.0 0.00 0.00 0.00 55 1016.9
20260504012409 53 150 0.0 0.0 0.00 0.00 0.00 58 1017.2
20260504011906 53 135 0.9 0.9 0.00 0.00 0.00 60 1017.0
20260504011403 54 136 0.9 0.9 0.00 0.00 0.00 59 1016.9
20260504010859 54 155 1.7 1.7 0.00 0.00 0.00 58 1016.9
20260504010355 55 134 0.9 0.9 0.00 0.00 0.00 55 1016.9
20260504005851 56 148 0.9 0.9 0.00 0.00 0.00 55 1016.4
20260504005348 57 208 0.0 0.9 0.00 0.00 0.00 52 1016.5
20260504004845 57 311 1.7 1.7 0.00 0.00 0.00 47 1016.5
20260504004343 57 167 0.0 0.9 0.00 0.00 0.00 47 1016.5
20260504003839 57 287 0.9 1.7 0.00 0.00 0.00 47 1016.3
20260504003336 58 221 1.7 1.7 0.00 0.00 0.00 48 1016.5
20260504002833 58 286 1.7 2.6 0.00 0.00 0.00 47 1016.3
20260504002330 58 315 1.7 1.7 0.00 0.00 0.00 47 1016.3
20260504001828 59 306 0.9 0.9 0.00 0.00 0.00 46 1016.2
20260504001325 59 293 1.7 1.7 0.00 0.00 0.00 48 1016.3
20260504000821 60 297 0.9 0.9 0.00 0.00 0.00 45 1016.0
20260504000318 61 306 4.3 5.2 0.00 0.00 0.00 43 1016.0
20260503235816 62 310 3.5 4.3 0.00 0.00 0.00 43 1016.3
20260503235313 62 38 2.6 2.6 0.00 0.00 0.00 42 1016.3
20260503234810 63 77 0.9 1.7 0.00 0.00 0.00 44 1015.9
20260503234303 64 33 3.5 5.2 0.00 0.00 0.00 41 1016.2
20260503233800 64 13 1.7 1.7 0.00 0.00 0.00 42 1015.8
20260503233255 64 6 0.0 0.9 0.00 0.00 0.00 43 1015.9
20260503232753 64 351 0.9 1.7 0.00 0.00 0.00 42 1015.8
20260503232250 66 17 0.9 0.9 0.00 0.00 0.00 41 1015.8
20260503231748 66 294 0.0 0.9 0.00 0.00 0.00 44 1015.8
20260503231245 65 2 0.9 1.7 0.00 0.00 0.00 42 1016.0
20260503230740 66 238 2.6 4.3 0.00 0.00 0.00 38 1016.0
20260503230237 65 304 1.7 2.6 0.00 0.00 0.00 41 1015.7
20260503225730 66 7 1.7 1.7 0.00 0.00 0.00 39 1015.9
20260503225229 67 29 2.6 2.6 0.00 0.00 0.00 36 1016.0
20260503224727 68 17 3.5 5.2 0.00 0.00 0.00 36 1015.7
20260503224224 67 328 0.9 1.7 0.00 0.00 0.00 40 1015.6
20260503223722 68 308 0.9 0.9 0.00 0.00 0.00 40 1015.7
20260503223219 66 286 0.9 0.9 0.00 0.00 0.00 39 1015.5
20260503222716 68 38 2.6 2.6 0.00 0.00 0.00 36 1015.7
20260503222214 67 338 2.6 4.3 0.00 0.00 0.00 36 1015.7
20260503221712 68 31 1.7 2.6 0.00 0.00 0.00 36 1015.7
20260503221209 67 305 2.6 2.6 0.00 0.00 0.00 37 1015.4
20260503220705 68 12 0.9 1.7 0.00 0.00 0.00 38 1015.7
20260503220202 68 306 1.7 2.6 0.00 0.00 0.00 39 1015.7
20260503215659 68 303 1.7 2.6 0.00 0.00 0.00 35 1015.8
20260503215156 68 308 1.7 1.7 0.00 0.00 0.00 41 1015.6
20260503214654 68 357 5.2 6.1 0.00 0.00 0.00 37 1015.6
20260503214149 68 149 3.5 6.1 0.00 0.00 0.00 34 1015.6
20260503213644 69 306 0.9 0.9 0.00 0.00 0.00 35 1015.7
20260503213140 68 49 0.9 0.9 0.00 0.00 0.00 39 1016.0
20260503212637 70 284 1.7 2.6 0.00 0.00 0.00 38 1015.9
20260503212135 68 354 0.9 0.9 0.00 0.00 0.00 38 1015.8
20260503211632 68 104 0.0 0.0 0.00 0.00 0.00 46 1016.0
20260503211127 67 84 1.7 2.6 0.00 0.00 0.00 36 1015.8
20260503210624 68 60 3.5 5.2 0.00 0.00 0.00 39 1016.0
20260503210121 69 331 0.0 0.9 0.00 0.00 0.00 40 1016.2
20260503205616 69 262 0.9 0.9 0.00 0.00 0.00 38 1016.0
20260503205113 68 277 0.0 0.0 0.00 0.00 0.00 34 1016.3
20260503204610 68 220 1.7 1.7 0.00 0.00 0.00 35 1016.4
20260503204108 68 288 3.5 4.3 0.00 0.00 0.00 37 1016.3
20260503203604 68 267 0.9 1.7 0.00 0.00 0.00 38 1016.3
20260503203102 68 305 1.7 2.6 0.00 0.00 0.00 43 1016.5
20260503202559 67 55 3.5 5.2 0.00 0.00 0.00 38 1016.4
20260503202057 69 92 0.0 0.9 0.00 0.00 0.00 39 1016.5
20260503201555 68 52 0.9 0.9 0.00 0.00 0.00 34 1016.8
20260503201051 67 291 1.7 2.6 0.00 0.00 0.00 38 1016.7
20260503200547 65 45 1.7 2.6 0.00 0.00 0.00 41 1017.0
20260503200044 67 285 0.9 1.7 0.00 0.00 0.00 37 1017.2
20260503195541 66 281 2.6 2.6 0.00 0.00 0.00 38 1017.0
20260503195038 66 286 1.7 2.6 0.00 0.00 0.00 46 1016.9
20260503194536 67 21 2.6 4.3 0.00 0.00 0.00 36 1017.1
20260503194035 67 311 2.6 2.6 0.00 0.00 0.00 37 1017.4
20260503193532 64 239 0.0 0.9 0.00 0.00 0.00 40 1017.2
20260503193027 66 5 1.7 1.7 0.00 0.00 0.00 36 1017.3
20260503192523 68 16 2.6 2.6 0.00 0.00 0.00 40 1017.2
20260503192019 68 260 0.9 1.7 0.00 0.00 0.00 45 1017.4
20260503191516 66 320 2.6 2.6 0.00 0.00 0.00 37 1017.5
20260503191013 67 291 2.6 2.6 0.00 0.00 0.00 41 1017.6
20260503190510 65 269 1.7 2.6 0.00 0.00 0.00 43 1017.9
20260503190008 66 344 2.6 5.2 0.00 0.00 0.00 37 1017.9
20260503185503 65 67 0.9 0.9 0.00 0.00 0.00 41 1017.8
20260503184958 64 86 0.0 0.9 0.00 0.00 0.00 40 1017.8
20260503184455 64 338 2.6 4.3 0.00 0.00 0.00 38 1018.1
20260503183951 66 104 0.9 1.7 0.00 0.00 0.00 37 1017.9
20260503183448 65 15 1.7 1.7 0.00 0.00 0.00 41 1018.1
20260503182944 63 89 0.0 0.9 0.00 0.00 0.00 43 1018.0
20260503182444 64 130 0.0 0.9 0.00 0.00 0.00 45 1018.2
20260503181941 64 161 0.0 0.9 0.00 0.00 0.00 40 1018.3
20260503181438 61 178 3.5 5.2 0.00 0.00 0.00 40 1018.5
20260503180933 64 52 0.0 0.9 0.00 0.00 0.00 37 1018.4
20260503180432 62 50 0.0 0.9 0.00 0.00 0.00 43 1018.4
20260503175928 63 243 0.9 1.7 0.00 0.00 0.00 37 1018.2
20260503175427 61 80 3.5 5.2 0.00 0.00 0.00 40 1018.4
20260503174922 62 280 1.7 1.7 0.00 0.00 0.00 41 1018.4
20260503174421 62 217 0.9 0.9 0.00 0.00 0.00 39 1018.5
20260503173920 60 13 1.7 2.6 0.00 0.00 0.00 44 1018.6
20260503173417 60 79 0.9 1.7 0.00 0.00 0.00 44 1018.6
20260503172914 63 45 2.6 4.3 0.00 0.00 0.00 38 1018.9
20260503172411 63 172 0.0 0.9 0.00 0.00 0.00 35 1019.0
20260503171907 61 163 0.0 0.9 0.00 0.00 0.00 40 1018.9
20260503171404 60 153 1.7 1.7 0.00 0.00 0.00 41 1019.0
20260503170902 59 17 2.6 4.3 0.00 0.00 0.00 45 1019.1
20260503170358 59 46 0.9 1.7 0.00 0.00 0.00 47 1019.3
20260503150750 51 85 2.6 5.2 0.00 0.00 0.00 57 1020.3
20260503150246 50 79 3.5 4.3 0.00 0.00 0.00 61 1020.3
20260503140211 46 165 0.0 0.0 0.00 0.00 0.00 76 1020.2
20260503131140 42 24 0.0 0.0 0.00 0.00 0.00 88 1020.2
20260503130638 41 51 0.0 0.0 0.00 0.00 0.00 89 1020.2
20260503130135 41 50 0.0 0.0 0.00 0.00 0.00 91 1020.1
20260503110527 34 158 0.0 0.9 0.00 0.00 0.00 99 1019.0
20260503090414 35 157 0.0 0.0 0.00 0.00 0.00 99 1017.8
20260503081341 36 131 1.7 1.7 0.00 0.00 0.00 99 1017.4
20260503080838 36 160 0.0 0.0 0.00 0.00 0.00 99 1017.5
20260503080335 36 138 0.0 0.9 0.00 0.00 0.00 99 1017.4
20260503072805 37 143 0.0 0.0 0.00 0.00 0.00 99 1017.1
20260503072305 37 165 0.9 0.9 0.00 0.00 0.00 99 1017.1
20260503071758 37 87 0.0 0.0 0.00 0.00 0.00 99 1017.1
20260503071256 37 155 0.9 1.7 0.00 0.00 0.00 99 1016.8
20260503070752 37 160 0.0 0.0 0.00 0.00 0.00 99 1017.2
20260503070250 37 61 0.9 0.9 0.00 0.00 0.00 97 1017.2
20260503060209 39 176 2.6 2.6 0.00 0.00 0.00 94 1016.8
20260503054656 40 162 1.7 1.7 0.00 0.00 0.00 94 1016.7
20260503054153 40 166 1.7 1.7 0.00 0.00 0.00 94 1016.6
20260503053651 40 165 0.9 0.9 0.00 0.00 0.00 94 1017.1
20260503053150 40 166 0.0 0.0 0.00 0.00 0.00 93 1017.2
20260503052646 40 163 0.9 0.9 0.00 0.00 0.00 94 1017.3
20260503052142 40 163 0.9 0.9 0.00 0.00 0.00 93 1016.9
20260503051637 41 155 0.0 0.0 0.00 0.00 0.00 92 1017.2
20260503051135 41 150 0.0 0.0 0.00 0.00 0.00 91 1017.2
20260503050632 41 149 0.0 0.0 0.00 0.00 0.00 91 1017.1
20260503050128 41 149 0.0 0.0 0.00 0.00 0.00 92 1017.2
20260503045626 41 147 0.0 0.0 0.00 0.00 0.00 91 1017.1
20260503045123 41 147 0.0 0.9 0.00 0.00 0.00 91 1017.0
20260503044619 41 142 0.9 0.9 0.00 0.00 0.00 90 1016.9
20260503044117 41 161 0.0 0.0 0.00 0.00 0.00 90 1016.7
20260503043614 41 154 0.0 0.0 0.00 0.00 0.00 89 1016.8
20260503043110 41 153 0.9 0.9 0.00 0.00 0.00 89 1016.8
20260503042607 41 142 0.9 0.9 0.00 0.00 0.00 88 1016.8
20260503042103 42 149 0.0 0.0 0.00 0.00 0.00 86 1016.6
20260503041600 41 139 0.0 0.0 0.00 0.00 0.00 86 1016.8
20260503041058 41 135 0.9 0.9 0.00 0.00 0.00 87 1016.5
20260503040555 40 161 0.0 0.0 0.00 0.00 0.00 91 1016.6
20260503040052 40 165 0.0 0.9 0.00 0.00 0.00 91 1016.6
20260503035548 40 166 0.9 1.7 0.00 0.00 0.00 91 1016.7